DateTimeUTC,F1_A11,F1_S11,BsB_S11,BsG_S11,BsR_S11,BbsB_S11,BbsG_S11,BbsR_S11,BaB_A11,BaG_A11,BaR_A11,Tu_S11,T_S11,Uu_S11,U_S11,P_S11,T1_A11
2021-02-24T19:00:00Z,00000200,21000000,,,,,,,-000.40,-000.10,0000.33,17.6,25.1,,00.0,0641.5,31.1
2021-02-24T19:01:00Z,00000200,21000000,,,,,,,0000.24,0000.34,-000.01,17.6,25.1,,00.0,0641.4,31.1
2021-02-24T19:02:00Z,00000200,21000000,,,,,,,0000.08,-000.22,-000.04,17.6,25.2,,00.0,0641.4,31.1
2021-02-24T19:03:00Z,00000200,61000000,,,,,,,-000.26,-000.10,0000.01,17.6,25.2,,00.0,0641.4,31.1
2021-02-24T19:04:00Z,00000200,41000000,-000.08,0000.10,-000.01,0000.17,0000.04,-000.22,0000.03,0000.23,0000.02,17.9,25.0,,00.0,0642.2,31.1
2021-02-24T19:05:00Z,00000200,01000000,-000.22,0000.29,-000.20,0000.01,0000.11,-000.09,0000.11,-000.01,0000.05,18.0,25.0,,00.0,0642.3,31.1
2021-02-24T19:06:00Z,00000200,01000000,0000.10,-000.11,-000.00,-000.10,0000.11,-000.02,0000.32,0000.16,0000.12,17.9,25.0,,00.0,0642.4,31.1
2021-02-24T19:07:00Z,00000200,01000000,0000.43,0000.06,-000.05,0000.41,-000.07,0000.05,-000.48,-000.59,-000.35,17.9,25.0,,00.0,0642.4,31.0
2021-02-24T19:08:00Z,00000200,01000000,-000.10,0000.12,-000.07,0000.38,0000.02,-000.11,0000.35,0000.41,0000.18,17.9,25.0,,00.0,0642.4,31.0
2021-02-24T19:09:00Z,00000200,01000000,-000.26,0000.09,-000.19,-000.05,-000.08,0000.08,-000.22,-000.18,-000.13,17.9,24.9,,00.0,0642.4,31.0
2021-02-24T19:10:00Z,00000200,01000000,0000.59,0000.29,0000.20,0000.32,0000.17,0000.11,0000.08,-000.32,0000.08,17.9,24.9,,00.0,0642.4,31.0
2021-02-24T19:11:00Z,00000200,01000000,0000.59,0000.25,0000.10,0000.28,-000.07,0000.03,0000.11,0000.32,0000.03,17.9,24.9,,00.0,0642.4,31.0
2021-02-24T19:12:00Z,00000200,01000000,0000.12,-000.06,-000.06,-000.01,0000.07,0000.13,0000.10,-000.01,-000.23,17.8,24.9,,00.0,0642.4,31.0
2021-02-24T19:13:00Z,00000200,01000000,-000.15,-000.17,-000.03,-000.09,0000.10,-000.11,0000.11,0000.48,0000.32,17.8,24.9,,00.0,0642.4,31.0
2021-02-24T19:14:00Z,00000200,01000000,0000.37,0000.20,0000.07,0000.49,-000.16,0000.12,0000.48,0000.32,0000.18,17.8,24.9,,00.0,0642.3,31.0
2021-02-24T19:15:00Z,00000200,01000000,-000.12,0000.05,0000.12,0000.09,0000.04,-000.03,-000.04,-000.19,0000.40,17.8,24.9,,00.0,0642.3,31.0
2021-02-24T19:16:00Z,00000200,01000000,0000.07,0000.08,0000.15,-000.18,0000.16,0000.00,0000.18,0000.34,-000.15,17.8,24.9,,00.0,0642.3,31.0
2021-02-24T19:17:00Z,00000200,01000000,-000.13,0000.24,0000.21,0000.00,0000.00,-000.05,-000.03,-000.16,0000.10,17.8,24.8,,00.0,0642.3,31.0
2021-02-24T19:18:00Z,00000200,01000000,0000.47,0000.32,0000.14,-000.30,-000.02,-000.00,0000.32,0000.08,0000.29,17.8,24.8,,00.0,0642.3,31.0
2021-02-24T19:19:00Z,00000200,01000000,0000.13,0000.18,0000.46,-000.20,-000.00,0000.07,0000.13,0000.76,-000.23,17.7,24.8,,00.0,0642.3,31.0
2021-02-24T19:20:00Z,00000200,01000000,0000.45,0000.14,0000.14,0000.15,0000.09,-000.07,-000.32,-000.47,-000.11,17.7,24.8,,00.0,0642.3,31.0
2021-02-24T19:21:00Z,00000200,01000000,0000.99,0000.09,0000.20,-000.08,-000.12,0000.13,0000.28,-000.08,0000.12,17.7,24.8,,00.0,0642.3,31.0
2021-02-24T19:22:00Z,00000200,01000000,0000.72,0000.12,-000.09,0000.19,0000.03,-000.15,0000.08,0000.17,-000.03,17.7,24.8,,00.0,0642.3,31.0
2021-02-24T19:23:00Z,00000200,01000000,0000.63,-000.04,0000.10,0000.16,0000.15,0000.24,-000.08,-000.28,0000.30,17.7,24.8,,00.0,0642.3,31.0
2021-02-24T19:24:00Z,00000200,01000000,0000.76,0000.10,-000.01,-000.29,-000.21,0000.02,-000.24,0000.12,-000.41,17.7,24.7,,00.0,0642.3,31.0
2021-02-24T19:25:00Z,00000200,01000000,0000.66,0000.17,-000.04,0000.27,-000.18,0000.05,0000.07,0000.03,0000.14,17.6,24.7,,00.0,0642.4,31.0
2021-02-24T19:26:00Z,00000200,01000000,-000.19,0000.05,0000.17,0000.24,-000.06,-000.12,-000.07,-000.30,0000.02,17.6,24.7,,00.0,0642.4,31.0
2021-02-24T19:27:00Z,00000200,01000000,0000.36,0000.15,-000.17,-000.03,0000.02,-000.33,-000.09,0000.27,-000.18,17.6,24.7,,00.0,0642.4,31.0
2021-02-24T19:28:00Z,00000200,01000000,0000.31,0000.15,0000.37,-000.24,0000.07,0000.10,0000.35,-000.19,0000.04,17.6,24.7,,00.0,0642.4,31.0
2021-02-24T19:29:00Z,00000200,01000000,0000.18,0000.24,0000.27,-000.10,0000.07,0000.15,-000.17,-000.20,-000.05,17.6,24.7,,00.0,0642.4,31.0
2021-02-24T19:30:00Z,00000200,01000000,-000.11,0000.35,0000.04,-000.18,0000.14,0000.27,0000.22,0000.36,0000.22,17.6,24.7,,00.0,0642.4,31.0
2021-02-24T19:31:00Z,00000200,01000000,0000.01,0000.08,0000.13,0000.13,-000.04,0000.02,0000.17,-000.13,0000.14,17.6,24.7,,00.0,0642.4,31.0
2021-02-24T19:32:00Z,00000200,01000000,0000.37,0000.26,-000.02,-000.12,0000.18,0000.11,-000.43,0000.04,-000.51,17.6,24.6,,00.0,0642.4,31.0
2021-02-24T19:33:00Z,00000200,01000000,0000.36,0000.30,0000.07,-000.03,0000.10,0000.10,0000.22,-000.02,0000.40,17.6,24.6,,00.0,0642.4,31.0
2021-02-24T19:34:00Z,00000200,01000000,0000.51,0000.26,-000.09,-000.19,-000.00,0000.01,-000.13,0000.06,-000.34,17.5,24.6,,00.0,0642.4,31.0
2021-02-24T19:35:00Z,00000200,01000000,0000.12,0000.30,0000.20,-000.55,0000.13,0000.03,-000.23,-000.27,0000.20,17.6,24.6,,00.0,0642.4,31.0
2021-02-24T19:36:00Z,00000200,01000000,-000.15,0000.13,-000.05,-000.24,-000.10,0000.12,0000.21,0000.13,0000.07,17.5,24.6,,00.0,0642.4,31.0
2021-02-24T19:37:00Z,00000200,01000000,0000.19,0000.42,0000.12,0000.23,-000.03,0000.23,0000.13,0000.13,0000.11,17.5,24.6,,00.0,0642.4,31.0
2021-02-24T19:38:00Z,00000200,01000000,0000.51,0000.09,-000.12,0000.08,-000.09,-000.05,0000.20,0000.53,-000.01,17.5,24.6,,00.0,0642.4,31.0
2021-02-24T19:39:00Z,00000200,01000000,-000.14,-000.02,0000.17,-000.21,0000.20,-000.08,0000.18,-000.36,0000.05,17.5,24.6,,00.0,0642.4,31.0
2021-02-24T19:40:00Z,00000200,01000000,0000.26,0000.17,-000.07,0000.26,-000.09,0000.28,-000.10,0000.38,0000.22,17.5,24.6,,00.0,0642.4,31.0
2021-02-24T19:41:00Z,00000200,01000000,0000.44,0000.23,0000.01,-000.19,0000.01,-000.05,0000.39,-000.21,0000.19,17.5,24.5,,00.0,0642.4,31.0
2021-02-24T19:42:00Z,00000200,01000000,0000.62,0000.11,0000.37,0000.28,0000.39,0000.24,-000.09,0000.26,-000.25,17.5,24.5,,00.0,0642.4,31.0
2021-02-24T19:43:00Z,00000200,01000000,0000.33,-000.07,0000.02,0000.28,-000.03,-000.00,-000.40,-000.58,-000.12,17.4,24.5,,00.0,0642.4,31.0
2021-02-24T19:44:00Z,00000200,01000000,0000.26,-000.02,0000.23,-000.03,-000.05,0000.19,0000.16,0000.36,0000.06,17.4,24.5,,00.0,0642.4,31.0
2021-02-24T19:45:00Z,00000200,01000000,0000.44,0000.28,0000.06,0000.29,-000.01,-000.03,0000.34,0000.26,0000.16,17.4,24.5,,00.0,0642.4,31.0
2021-02-24T19:46:00Z,00000200,01000000,0000.03,0000.32,0000.09,-000.33,0000.07,-000.09,-000.33,-000.69,-000.37,17.4,24.5,,00.0,0642.4,31.0
2021-02-24T19:47:00Z,00000200,01000000,0000.37,0000.16,-000.02,-000.26,-000.02,0000.15,0000.25,0000.58,0000.34,17.4,24.5,,00.0,0642.4,31.0
2021-02-24T19:48:00Z,00000200,01000000,0000.36,0000.22,0000.11,-000.59,-000.04,-000.01,0000.98,0000.74,0000.66,17.4,24.5,,00.0,0642.4,31.0
2021-02-24T19:49:00Z,00000200,01000000,0000.37,0000.21,0000.21,-000.47,0000.14,0000.04,0000.04,0000.35,0000.17,17.4,24.5,,00.0,0642.3,31.0
2021-02-24T19:50:00Z,00000200,01000000,0000.05,0000.29,-000.09,0000.15,-000.10,0000.03,0000.12,0000.22,0000.07,17.3,24.5,,00.0,0642.3,31.0
2021-02-24T19:51:00Z,00000200,01000000,0000.67,0000.02,0000.16,0000.04,0000.21,0000.16,0000.32,0000.08,-000.12,17.4,24.4,,00.0,0642.3,31.0
2021-02-24T19:52:00Z,00000200,01000000,0000.66,0000.10,0000.17,0000.34,-000.02,0000.09,0000.10,0000.23,0000.02,17.4,24.4,,00.0,0642.3,31.0
2021-02-24T19:53:00Z,00000200,01000000,0000.30,0000.11,-000.09,0000.08,-000.11,0000.05,-000.03,-000.33,0000.32,17.4,24.4,,00.0,0642.4,31.0
2021-02-24T19:54:00Z,00000200,01000000,0000.57,0000.02,0000.13,0000.10,-000.01,-000.07,-000.44,-000.29,-000.32,17.3,24.4,,00.0,0642.4,31.0
2021-02-24T19:55:00Z,00000200,01000000,-000.09,-000.05,0000.19,-000.47,-000.11,-000.05,0000.19,-000.08,-000.05,17.3,24.4,,00.0,0642.4,31.0
2021-02-24T19:56:00Z,00000200,01000000,-000.32,0000.09,-000.03,-000.23,-000.23,0000.14,-000.31,0000.11,-000.23,17.3,24.4,,00.0,0642.4,31.0
2021-02-24T19:57:00Z,00000200,41000000,,,,,,,0000.08,-000.25,0000.19,17.4,24.5,,00.0,0642.5,31.0
2021-02-24T19:58:00Z,00000200,61000000,,,,,,,-000.59,-000.69,-000.62,17.0,24.5,,00.0,0641.5,31.0
2021-02-24T19:59:00Z,00000200,21000000,,,,,,,0000.21,0000.45,0000.18,17.0,24.6,,00.0,0641.5,31.0
